STARLINK-32939 (63149 NORAD) Tracking and Keplerian Element Data

This shows tracking and keplerian element data for the satellite.

Feedback or suggestion? Click here.




ElementValue
Catalog63149
NameSTARLINK-32939
Epoch Orbit4512
Epoch Day353.65019816
Epoch Year2025
RAAN108.0583
Inclination42.998
Eccentricity9.88E-05
Argument of Perigee55.7453
Mean Anonmoly304.3492
Mean Motion15.27593714
Decay Rate0.00019037
L11 63149U 25043T 25353.65019816 .00019037 00000+0 69925-3 0 9994
L22 63149 42.9980 108.0583 0000988 55.7453 304.3492 15.27593714 45127



Live tracking and technical data element details for STARLINK-32939 (NORAD 63149). STARLINK-32939 can be tracked NOW for your location showing map with azimuth and elevation plus other details from your city location.







IsCatalogInMostPopularTable: catalog: 63149, numindb: 2
Update: records affected: 1



GetName: 63149 STARLINK-32939

Hit Count: updated at: Sat, 07 Feb 2026 08:09:06 GMT